Regional Weather Roundup
Issued by NWS

Home | Current Version | Previous Version | Graphics & Text | Print | Product List | Glossary On
Versions: 1 2 3 4 5 6 7 8 9 10 11 12 13 14 15 16 17 18 19 20 21 22 23 24 25 26 27 28 29 30 31 32 33 34 35 36 37 38 39 40 41 42 43 44 45 46 47 48 49 50
000
ASUS43 KMKX 280000
RWRWI

WISCONSIN REGIONAL WEATHER ROUNDUP
NATIONAL WEATHER SERVICE MILWAUKEE/SULLIVAN WI
700 PM CDT THU JUL 27 2017

NOTE: "FAIR" INDICATES FEW OR NO CLOUDS BELOW 12,000 FEET WITH NO
SIGNIFICANT WEATHER AND/OR OBSTRUCTIONS TO VISIBILITY.

WIZ001-002-006>008-014>016-023>028-280100-
NORTHWEST WISCONSIN

CITY           SKY/WX    TMP DP  RH WIND       PRES   REMARKS
SUPERIOR ARPT  NOT AVBL
ASHLAND        MOSUNNY   72  60  66 NE10      30.07S
6HR MIN TEMP:  72; 6HR MAX TEMP:  81;

HAYWARD        SUNNY     77  57  50 NE8       30.05S
6HR MIN TEMP:  77; 6HR MAX TEMP:  82;

SIREN          MOSUNNY   80  55  42 NE5       30.05R HX  80
CUMBERLAND     SUNNY     77  57  50 NE6       30.04F
RICE LAKE      MOSUNNY   79  56  45 N3        30.04F HX  80
CHETEK         SUNNY     80  59  47 N7        30.03F HX  81
LADYSMITH      SUNNY     80  59  49 N3        30.05S HX  80
EAU CLAIRE     NOT AVBL
MENOMONIE      MOSUNNY   81  57  44 N7        30.02S HX  81
6HR MIN TEMP:  78; 6HR MAX TEMP:  83;

NEW RICHMOND   SUNNY     80  56  43 NE6       30.03F HX  80
OSCEOLA        SUNNY     81  58  45 N7        30.05S HX  81
$$

WIZ003>005-009-010-017-018-280100-
NORTH CENTRAL WISCONSIN

CITY           SKY/WX    TMP DP  RH WIND       PRES   REMARKS
MANITOWISH WTR MOSUNNY   74  60  61 NE8       30.06S
6HR MIN TEMP:  74; 6HR MAX TEMP:  81;

ARBOR VITAE    CLOUDY    77  59  54 NE8       30.05S
WOODRUFF       CLOUDY    77  59  54 NE8       30.05S
RHINELANDER    PTSUNNY   75  59  57 NE3       30.06S
6HR MIN TEMP:  75; 6HR MAX TEMP:  80;

EAGLE RIVER    CLOUDY    73  56  54 E6        30.06S
LAND O LAKES   CLOUDY    73  52  49 NE6       30.09S
6HR MIN TEMP:  73; 6HR MAX TEMP:  80;

PHILLIPS       MOSUNNY   76  61  59 NE6       30.04S
6HR MIN TEMP:  75; 6HR MAX TEMP:  80;

TOMAHAWK         N/A     73  63  70 CALM      30.05S
MEDFORD        MOSUNNY   75  60  59 CALM      30.03S
MERRILL        MOSUNNY   75  61  60 E5        30.04S
$$

WIZ029-030-035-036-043>047-280100-
CENTRAL WISCONSIN

CITY           SKY/WX    TMP DP  RH WIND       PRES   REMARKS
WAUSAU         PTSUNNY   76  60  57 NE8       30.01S
6HR MIN TEMP:  76; 6HR MAX TEMP:  81;

MOSINEE        PTSUNNY   77  61  57 CALM      30.03
MARSHFIELD     PTSUNNY   81  57  43 VRB5      30.01S HX  81
6HR MIN TEMP:  77; 6HR MAX TEMP:  83;

STEVENS POINT  MOSUNNY   76  58  53 E3        30.02S
WAUPACA        MOSUNNY   82  56  41 SE6       30.01S HX  81
WAUTOMA        PTSUNNY   78  59  51 E6        30.01S
6HR MIN TEMP:  78; 6HR MAX TEMP:  83;

WISC RAPIDS    CLOUDY    79  60  52 E6        30.02S HX  80
6HR MIN TEMP:  79; 6HR MAX TEMP:  85;

CAMP DOUGLAS   NOT AVBL
$$

WIZ011>013-019>022-031-037>040-048>050-280100-
NORTHEAST WISCONSIN

CITY           SKY/WX    TMP DP  RH WIND       PRES   REMARKS
ANTIGO         MOSUNNY   74  62  65 CALM      30.05S
6HR MIN TEMP:  71; 6HR MAX TEMP:  78;

SHAWANO        PTSUNNY   77  63  61 SE5       30.00S
6HR MIN TEMP:  77; 6HR MAX TEMP:  84;

OCONTO         PTSUNNY   74  60  61 E6        30.01S
STURGEON BAY     N/A     73  58  59 E7        30.02R
6HR MIN TEMP:  73; 6HR MAX TEMP:  78;

GREEN BAY      MOSUNNY   75  62  64 NE9       30.00F
6HR MIN TEMP:  75; 6HR MAX TEMP:  80;

MANITOWOC      NOT AVBL
APPLETON       PTSUNNY   79  54  41 NE9       30.00S
CLINTONVILLE   MOSUNNY  N/A N/A N/A CALM      30.01S
OSHKOSH        SUNNY     77  58  51 E6        30.00S
6HR MIN TEMP:  77; 6HR MAX TEMP:  81;

$$

WIZ032>034-041-042-053>061-280100-
SOUTHWEST WISCONSIN

CITY           SKY/WX    TMP DP  RH WIND       PRES   REMARKS
LA CROSSE      SUNNY     84  64  50 N9        29.98S HX  85
6HR MIN TEMP:  82; 6HR MAX TEMP:  87;

SPARTA         PTSUNNY   80  62  55 NE5       29.99S HX  81
6HR MIN TEMP:  79; 6HR MAX TEMP:  84;

VIROQUA        PTSUNNY   78  66  66 N3        30.01S HX  80
6HR MIN TEMP:  75; 6HR MAX TEMP:  82;

BOSCOBEL       SUNNY     84  62  47 NE3       29.97F HX  85
6HR MIN TEMP:  83; 6HR MAX TEMP:  86;

PRAIRIE DU CHI SUNNY     81  59  47 CALM      29.97S HX  81
PLATTEVILLE    SUNNY     81  62  52 NE8       29.99S HX  82
$$

WIZ056-057-062-063-064-067-068-280100-
SOUTH CENTRAL WISCONSIN

CITY           SKY/WX    TMP DP  RH WIND       PRES   REMARKS
REEDSBURG      MOSUNNY   77  62  59 E6        29.99S
6HR MIN TEMP:  77; 6HR MAX TEMP:  82;

BARABOO/DELLS  MOSUNNY   78  58  49 E7        30.00S HX  80
LONE ROCK      NOT AVBL
MINERAL POINT  SUNNY     81  59  47 NE7       30.00S HX  81
MADISON        PTSUNNY   78  62  57 NE9       29.98F HX  80
6HR MIN TEMP:  78; 6HR MAX TEMP:  83;

MIDDLETON      SUNNY     79  63  57 NE8       29.99S HX  80
6HR MIN TEMP:  79; 6HR MAX TEMP:  83;

WATERTOWN      SUNNY     77  59  54 NE8       29.99S
MONROE         SUNNY     77  61  57 NE10      29.98S
JANESVILLE     MOSUNNY   79  59  50 NE9       29.96F HX  80
$$

WIZ051-052-058>065-066-070>072-280100-
SOUTHEAST WISCONSIN

CITY           SKY/WX    TMP DP  RH WIND       PRES   REMARKS
MILWAUKEE      PTSUNNY   74  55  51 N16G26    29.98S
6HR MIN TEMP:  74; 6HR MAX TEMP:  78;

WAUKESHA       SUNNY     73  48  40 N13G21    30.00S
MILWAUKEE/TIMM SUNNY     75  46  35 NE14G20   30.00S
RACINE         SUNNY     72  61  68 N17G28    29.98F
6HR MIN TEMP:  72; 6HR MAX TEMP:  77;

KENOSHA        SUNNY     74  53  48 N14G23    29.97S
6HR MIN TEMP:  74; 6HR MAX TEMP:  81;

FOND DU LAC    SUNNY     77  54  44 E7        30.00S
6HR MIN TEMP:  77; 6HR MAX TEMP:  82; 6HR PCP: TRACE;

SHEBOYGAN      SUNNY     73  62  68 NE12      30.00S
6HR MIN TEMP:  73; 6HR MAX TEMP:  78;

WEST BEND      SUNNY     73  52  46 NE10G20   30.00S
JUNEAU         SUNNY     76  55  48 NE7       30.01S
$$

LSZ147-162-280100-
LAKE SUPERIOR

STATION/POSITION TIME  TEMP    WIND        PRES    WAVE
                       AIR SEA DIR/SP/G            HT/PER
                 (UTC) (F)     (DEG/KT/KT) (MB)    (FT/S)
W MID LAKE BUOY  2250   57 55   50/  4/  4 1018.1F   0
DEVILS ISLAND    2300   63     100/  7/  8 1018.1F
SAXON HARBOR     2330   67     330/  4/  5 1017.9R
$$

LMZ867-665-643>646-280100-
LAKE MICHIGAN

STATION/POSITION TIME  TEMP    WIND        PRES    WAVE
                       AIR SEA DIR/SP/G            HT/PER
                 (UTC) (F)     (DEG/KT/KT) (MB)    (FT/S)
CHAMBERS ISLAND  2340   72      30/ 12/ 14 1015.9R
S GREEN BAY BUOY 2330   73 72   40/ 10/ 14 1016.0R
N MID LAKE BUOY  2250   70 69  360/  6/  6 1016.6F   1
NORTHPORT PIER   2340   73      10/ 13/ 16 1016.3R
KEWAUNEE LAKESHO 2330   71      10/  2/  4 1015.4F
SHEBOYGAN LAKESH 2300   70      20/ 14/ 15 1015.2F
PORT WASHINGTON  2330   76      20/  9/ 15 1016.3S
ATWATER BUOY     2209   71 69   20/ 21/ 25 1015.1F
MILWAUKEE LAKESH 2330   73     360/ 16/ 19   N/A
S MID LAKE BUOY  2250   70 71   10/ 19/ 23 1013.1F   4/ 5
KENOSHA   LAKESH 2300   72      10/ 21/ 25 1013.9
$$

TC  - TEMPERATURE IN CELSIUS
VSB - VISIBILITY IN STATUTE MILES
WCI - WIND CHILL INDEX
HX  - HEAT INDEX





USA.gov is the U.S. government's official web portal to all federal, state and local government web resources and services.